| time (UTC) | temp F | wind direction | speed MPH | gust MPH | rain 1hr in | rain 24hr in | rain mn in | humidity % | barometer mb |
| 20260905215150 | 56 | 282 | 3.0 | 5.0 | 0.00 | 0.00 | 0.00 | 87 | 1008.6 |
| 20260905214649 | 56 | 250 | 3.0 | 6.0 | 0.00 | 0.00 | 0.00 | 87 | 1008.6 |
| 20260905214148 | 56 | 264 | 3.0 | 7.0 | 0.00 | 0.00 | 0.00 | 87 | 1008.4 |
| 20260905213646 | 56 | 238 | 3.0 | 5.0 | 0.00 | 0.00 | 0.00 | 87 | 1008.4 |
| 20260905213146 | 56 | 270 | 3.0 | 5.0 | 0.00 | 0.00 | 0.00 | 87 | 1008.4 |
| 20260905212645 | 56 | 270 | 3.0 | 4.0 | 0.00 | 0.00 | 0.00 | 87 | 1008.3 |
| 20260905212144 | 56 | 240 | 3.0 | 5.0 | 0.00 | 0.00 | 0.00 | 87 | 1008.3 |
| 20260905211643 | 56 | 246 | 3.0 | 6.0 | 0.00 | 0.00 | 0.00 | 87 | 1008.3 |
| 20260905211141 | 56 | 240 | 3.0 | 6.0 | 0.00 | 0.00 | 0.00 | 87 | 1008.2 |
| 20260905210640 | 56 | 251 | 3.0 | 6.0 | 0.00 | 0.00 | 0.00 | 87 | 1008.2 |
| 20260905210140 | 56 | 120 | 3.0 | 6.0 | 0.00 | 0.00 | 0.00 | 87 | 1008.2 |
| 20260905205638 | 56 | 228 | 3.0 | 6.0 | 0.00 | 0.00 | 0.00 | 87 | 1008.1 |
| 20260905205137 | 56 | 246 | 3.0 | 4.0 | 0.00 | 0.00 | 0.00 | 87 | 1008.1 |
| 20260905204636 | 56 | 251 | 3.0 | 7.0 | 0.00 | 0.00 | 0.00 | 86 | 1008.0 |
| 20260905204135 | 56 | 250 | 3.0 | 5.0 | 0.00 | 0.00 | 0.00 | 87 | 1008.0 |
| 20260905203633 | 56 | 252 | 3.0 | 5.0 | 0.00 | 0.00 | 0.00 | 87 | 1008.1 |
| 20260905203132 | 56 | 342 | 3.0 | 6.0 | 0.00 | 0.00 | 0.00 | 87 | 1008.0 |
| 20260905202631 | 56 | 256 | 3.0 | 6.0 | 0.00 | 0.00 | 0.00 | 87 | 1007.9 |
| 20260905202130 | 56 | 270 | 3.0 | 6.0 | 0.00 | 0.00 | 0.00 | 87 | 1007.8 |
| 20260905201630 | 56 | 288 | 3.0 | 6.0 | 0.00 | 0.00 | 0.00 | 87 | 1007.8 |
| 20260905201128 | 56 | 245 | 2.0 | 4.0 | 0.00 | 0.00 | 0.00 | 87 | 1007.7 |
| 20260905200628 | 56 | 261 | 3.0 | 5.0 | 0.00 | 0.00 | 0.00 | 87 | 1007.7 |
| 20260905200127 | 56 | 240 | 2.0 | 5.0 | 0.00 | 0.00 | 0.00 | 87 | 1007.7 |
| 20260905195626 | 56 | 264 | 2.0 | 5.0 | 0.00 | 0.00 | 0.00 | 87 | 1007.7 |
| 20260905195125 | 56 | 258 | 3.0 | 5.0 | 0.00 | 0.00 | 0.00 | 87 | 1007.5 |
| 20260905194624 | 56 | 264 | 3.0 | 5.0 | 0.00 | 0.00 | 0.00 | 87 | 1007.5 |
| 20260905194123 | 56 | 252 | 3.0 | 7.0 | 0.00 | 0.00 | 0.00 | 87 | 1007.6 |
| 20260905193622 | 56 | 250 | 3.0 | 6.0 | 0.00 | 0.00 | 0.00 | 87 | 1007.6 |
| 20260905193120 | 56 | 252 | 3.0 | 6.0 | 0.00 | 0.00 | 0.00 | 87 | 1007.4 |
| 20260905192620 | 56 | 262 | 3.0 | 4.0 | 0.00 | 0.00 | 0.00 | 88 | 1007.4 |
| 20260905192118 | 56 | 276 | 3.0 | 5.0 | 0.00 | 0.00 | 0.00 | 88 | 1007.4 |
| 20260905191617 | 56 | 94 | 3.0 | 6.0 | 0.00 | 0.00 | 0.00 | 88 | 1007.3 |
| 20260905191116 | 56 | 258 | 3.0 | 5.0 | 0.00 | 0.00 | 0.00 | 88 | 1007.3 |
| 20260905190614 | 56 | 246 | 3.0 | 6.0 | 0.00 | 0.00 | 0.00 | 88 | 1007.2 |
| 20260905190113 | 56 | 234 | 3.0 | 4.0 | 0.00 | 0.00 | 0.00 | 88 | 1007.2 |
| 20260905185613 | 56 | 233 | 3.0 | 4.0 | 0.00 | 0.00 | 0.00 | 88 | 1007.0 |
| 20260905185112 | 56 | 252 | 2.0 | 4.0 | 0.00 | 0.00 | 0.00 | 88 | 1007.0 |
| 20260905184611 | 56 | 250 | 2.0 | 4.0 | 0.00 | 0.00 | 0.00 | 88 | 1007.0 |
| 20260905184110 | 56 | 228 | 3.0 | 4.0 | 0.00 | 0.00 | 0.00 | 88 | 1006.9 |
| 20260905183609 | 56 | 244 | 2.0 | 4.0 | 0.00 | 0.00 | 0.00 | 88 | 1006.9 |
| 20260905183108 | 56 | 264 | 2.0 | 4.0 | 0.00 | 0.00 | 0.00 | 87 | 1006.9 |
| 20260905182607 | 57 | 274 | 2.0 | 5.0 | 0.00 | 0.00 | 0.00 | 87 | 1006.8 |
| 20260905182106 | 57 | 282 | 3.0 | 5.0 | 0.00 | 0.00 | 0.00 | 86 | 1006.9 |
| 20260905181605 | 57 | 270 | 3.0 | 5.0 | 0.00 | 0.00 | 0.00 | 86 | 1006.9 |
| 20260905181104 | 57 | 239 | 3.0 | 5.0 | 0.00 | 0.00 | 0.00 | 86 | 1006.8 |
| 20260905180603 | 56 | 252 | 3.0 | 6.0 | 0.00 | 0.00 | 0.00 | 86 | 1006.8 |
| 20260905175601 | 57 | 256 | 3.0 | 6.0 | 0.00 | 0.00 | 0.00 | 87 | 1006.7 |
| 20260905175100 | 57 | 276 | 3.0 | 6.0 | 0.00 | 0.00 | 0.00 | 87 | 1006.6 |
| 20260905174600 | 57 | 249 | 3.0 | 5.0 | 0.00 | 0.00 | 0.00 | 87 | 1006.5 |
| 20260905174058 | 57 | 246 | 3.0 | 4.0 | 0.00 | 0.00 | 0.00 | 87 | 1006.5 |
| 20260905173556 | 57 | 270 | 3.0 | 5.0 | 0.00 | 0.00 | 0.00 | 88 | 1006.3 |
| 20260905173056 | 57 | 250 | 3.0 | 5.0 | 0.00 | 0.00 | 0.00 | 88 | 1006.3 |
| 20260905172554 | 57 | 270 | 3.0 | 4.0 | 0.00 | 0.00 | 0.00 | 88 | 1006.2 |
| 20260905172054 | 57 | 270 | 2.0 | 4.0 | 0.00 | 0.00 | 0.00 | 87 | 1006.2 |
| 20260905171553 | 57 | 255 | 3.0 | 5.0 | 0.00 | 0.00 | 0.00 | 87 | 1006.2 |
| 20260905171052 | 57 | 336 | 3.0 | 5.0 | 0.00 | 0.00 | 0.00 | 86 | 1006.3 |
| 20260905170550 | 57 | 262 | 4.0 | 6.0 | 0.00 | 0.00 | 0.00 | 84 | 1006.3 |
| 20260905170049 | 57 | 294 | 3.0 | 5.0 | 0.00 | 0.00 | 0.00 | 84 | 1006.3 |
| 20260905165549 | 57 | 277 | 3.0 | 5.0 | 0.00 | 0.00 | 0.00 | 84 | 1006.1 |
| 20260905165047 | 57 | 192 | 2.0 | 5.0 | 0.00 | 0.00 | 0.00 | 85 | 1006.1 |
| 20260905164547 | 58 | 336 | 3.0 | 4.0 | 0.01 | 0.00 | 0.00 | 85 | 1006.1 |
| 20260905164046 | 57 | 20 | 3.0 | 6.0 | 0.01 | 0.00 | 0.00 | 85 | 1006.1 |
| 20260905163544 | 58 | 96 | 3.0 | 6.0 | 0.01 | 0.00 | 0.00 | 87 | 1006.1 |
| 20260905163043 | 58 | 252 | 3.0 | 6.0 | 0.00 | 0.00 | 0.00 | 88 | 1006.3 |
| 20260905162542 | 58 | 255 | 3.0 | 5.0 | 0.00 | 0.00 | 0.00 | 87 | 1006.5 |
| 20260905162041 | 59 | 249 | 5.0 | 10.0 | 0.01 | 0.00 | 0.00 | 85 | 1006.5 |
| 20260905161540 | 59 | 255 | 4.0 | 7.0 | 0.01 | 0.00 | 0.00 | 83 | 1006.5 |
| 20260905161039 | 59 | 256 | 2.0 | 4.0 | 0.01 | 0.00 | 0.00 | 85 | 1006.3 |
| 20260905160537 | 60 | 262 | 2.0 | 3.0 | 0.00 | 0.00 | 0.00 | 84 | 1005.9 |
| 20260905160036 | 60 | 246 | 2.0 | 4.0 | 0.00 | 0.00 | 0.00 | 78 | 1005.4 |
| 20260905155536 | 60 | 252 | 1.0 | 2.0 | 0.00 | 0.00 | 0.00 | 78 | 1005.1 |
| 20260905155034 | 60 | 245 | 1.0 | 3.0 | 0.00 | 0.00 | 0.00 | 78 | 1005.1 |
| 20260905154533 | 60 | 269 | 1.0 | 3.0 | 0.00 | 0.00 | 0.00 | 80 | 1005.1 |
| 20260905154031 | 61 | 258 | 1.0 | 3.0 | 0.00 | 0.00 | 0.00 | 79 | 1005.2 |
| 20260905153531 | 61 | 264 | 2.0 | 3.0 | 0.00 | 0.00 | 0.00 | 78 | 1005.2 |
| 20260905153029 | 60 | 244 | 2.0 | 4.0 | 0.00 | 0.00 | 0.00 | 76 | 1005.3 |
| 20260905152528 | 60 | 249 | 1.0 | 2.0 | 0.00 | 0.00 | 0.00 | 79 | 1005.3 |
| 20260905152028 | 59 | 43 | 1.0 | 2.0 | 0.00 | 0.00 | 0.00 | 80 | 1005.3 |
| 20260905151526 | 59 | 246 | 1.0 | 3.0 | 0.00 | 0.00 | 0.00 | 80 | 1005.3 |
| 20260905151025 | 59 | 270 | 1.0 | 2.0 | 0.00 | 0.00 | 0.00 | 80 | 1005.4 |
| 20260905150523 | 58 | 261 | 2.0 | 4.0 | 0.00 | 0.00 | 0.00 | 79 | 1005.4 |
| 20260905150022 | 58 | 258 | 3.0 | 6.0 | 0.00 | 0.00 | 0.00 | 79 | 1005.5 |
| 20260905145522 | 59 | 232 | 4.0 | 6.0 | 0.00 | 0.00 | 0.00 | 79 | 1005.8 |
| 20260905145020 | 63 | 234 | 5.0 | 10.0 | 0.00 | 0.00 | 0.00 | 72 | 1006.1 |
| 20260905144520 | 64 | 269 | 3.0 | 6.0 | 0.00 | 0.00 | 0.00 | 66 | 1005.6 |
| 20260905144018 | 65 | 253 | 4.0 | 9.0 | 0.00 | 0.00 | 0.00 | 64 | 1005.3 |
| 20260905143517 | 65 | 246 | 3.0 | 6.0 | 0.00 | 0.00 | 0.00 | 65 | 1005.2 |
| 20260905143016 | 65 | 246 | 3.0 | 6.0 | 0.00 | 0.00 | 0.00 | 64 | 1005.0 |
| 20260905142516 | 66 | 234 | 3.0 | 5.0 | 0.00 | 0.00 | 0.00 | 63 | 1005.0 |
| 20260905142014 | 66 | 264 | 3.0 | 7.0 | 0.00 | 0.00 | 0.00 | 63 | 1005.1 |
| 20260905141513 | 65 | 12 | 4.0 | 7.0 | 0.00 | 0.00 | 0.00 | 63 | 1005.1 |
| 20260905141012 | 65 | 54 | 4.0 | 10.0 | 0.00 | 0.00 | 0.00 | 63 | 1005.3 |
| 20260905140511 | 66 | 246 | 4.0 | 7.0 | 0.00 | 0.00 | 0.00 | 62 | 1005.4 |
| 20260905140010 | 66 | 247 | 4.0 | 9.0 | 0.00 | 0.00 | 0.00 | 61 | 1005.0 |
| 20260905135509 | 66 | 270 | 3.0 | 9.0 | 0.00 | 0.00 | 0.00 | 61 | 1005.3 |
| 20260905135008 | 67 | 244 | 3.0 | 5.0 | 0.00 | 0.00 | 0.00 | 61 | 1004.9 |
| 20260905134507 | 66 | 256 | 3.0 | 6.0 | 0.00 | 0.00 | 0.00 | 60 | 1005.0 |
| 20260905134006 | 66 | 251 | 4.0 | 6.0 | 0.00 | 0.00 | 0.00 | 60 | 1005.1 |
| 20260905133505 | 67 | 262 | 4.0 | 9.0 | 0.00 | 0.00 | 0.00 | 58 | 1005.0 |
| 20260905133004 | 68 | 298 | 5.0 | 10.0 | 0.00 | 0.00 | 0.00 | 57 | 1005.0 |
| 20260905132504 | 68 | 265 | 4.0 | 10.0 | 0.00 | 0.00 | 0.00 | 56 | 1004.9 |
| 20260905132003 | 68 | 234 | 4.0 | 9.0 | 0.00 | 0.00 | 0.00 | 57 | 1004.9 |
| 20260905131502 | 67 | 253 | 5.0 | 7.0 | 0.00 | 0.00 | 0.00 | 57 | 1005.1 |
| 20260905131001 | 67 | 109 | 4.0 | 10.0 | 0.00 | 0.00 | 0.00 | 57 | 1005.0 |
| 20260905130500 | 67 | 206 | 5.0 | 8.0 | 0.00 | 0.00 | 0.00 | 58 | 1004.9 |
| 20260905125959 | 67 | 303 | 4.0 | 9.0 | 0.00 | 0.00 | 0.00 | 63 | 1004.9 |
| 20260905125458 | 68 | 66 | 3.0 | 6.0 | 0.00 | 0.00 | 0.00 | 64 | 1004.6 |
| 20260905124957 | 68 | 66 | 3.0 | 6.0 | 0.00 | 0.00 | 0.00 | 66 | 1004.6 |
| 20260905124457 | 68 | 265 | 3.0 | 5.0 | 0.00 | 0.00 | 0.00 | 66 | 1004.8 |
| 20260905123955 | 67 | 193 | 3.0 | 5.0 | 0.00 | 0.00 | 0.00 | 68 | 1004.7 |
| 20260905123454 | 66 | 353 | 2.0 | 5.0 | 0.00 | 0.00 | 0.00 | 71 | 1004.7 |
| 20260905122953 | 65 | 269 | 2.0 | 5.0 | 0.00 | 0.00 | 0.00 | 73 | 1004.7 |
| 20260905122452 | 64 | 132 | 2.0 | 4.0 | 0.00 | 0.00 | 0.00 | 75 | 1004.8 |
| 20260905121951 | 63 | 276 | 2.0 | 3.0 | 0.00 | 0.00 | 0.00 | 77 | 1004.8 |
| 20260905121449 | 62 | 264 | 2.0 | 5.0 | 0.00 | 0.00 | 0.00 | 79 | 1005.0 |
| 20260905120949 | 62 | 336 | 2.0 | 5.0 | 0.00 | 0.00 | 0.00 | 80 | 1004.9 |
| 20260905120448 | 62 | 264 | 3.0 | 5.0 | 0.00 | 0.00 | 0.00 | 78 | 1005.1 |
| 20260905115947 | 61 | 269 | 2.0 | 4.0 | 0.00 | 0.00 | 0.00 | 78 | 1005.1 |
| 20260905115446 | 60 | 148 | 1.0 | 2.0 | 0.00 | 0.00 | 0.00 | 82 | 1005.1 |
| 20260905114944 | 59 | 256 | 1.0 | 2.0 | 0.00 | 0.00 | 0.00 | 83 | 1005.1 |
| 20260905114443 | 59 | 270 | 1.0 | 3.0 | 0.00 | 0.00 | 0.00 | 83 | 1005.3 |
| 20260905113942 | 58 | 342 | 2.0 | 4.0 | 0.00 | 0.00 | 0.00 | 82 | 1005.3 |
| 20260905113441 | 58 | 278 | 3.0 | 4.0 | 0.00 | 0.00 | 0.00 | 83 | 1005.3 |
| 20260905112940 | 57 | 240 | 3.0 | 5.0 | 0.00 | 0.00 | 0.00 | 84 | 1005.3 |
| 20260905112439 | 57 | 284 | 2.0 | 3.0 | 0.00 | 0.00 | 0.00 | 85 | 1005.4 |
| 20260905111939 | 57 | 270 | 2.0 | 4.0 | 0.00 | 0.00 | 0.00 | 85 | 1005.6 |
| 20260905111437 | 58 | 306 | 4.0 | 11.0 | 0.00 | 0.00 | 0.00 | 83 | 1005.8 |
| 20260905110937 | 60 | 237 | 5.0 | 9.0 | 0.00 | 0.00 | 0.00 | 77 | 1006.0 |
| 20260905110435 | 62 | 247 | 3.0 | 6.0 | 0.00 | 0.00 | 0.00 | 73 | 1005.3 |
| 20260905105934 | 64 | 258 | 4.0 | 9.0 | 0.00 | 0.00 | 0.00 | 67 | 1005.1 |
| 20260905105433 | 65 | 234 | 4.0 | 10.0 | 0.00 | 0.00 | 0.00 | 61 | 1005.0 |
| 20260905104932 | 65 | 296 | 4.0 | 6.0 | 0.00 | 0.00 | 0.00 | 60 | 1005.0 |
| 20260905104431 | 65 | 223 | 3.0 | 7.0 | 0.00 | 0.00 | 0.00 | 60 | 1005.1 |
| 20260905103930 | 64 | 238 | 4.0 | 7.0 | 0.00 | 0.00 | 0.00 | 61 | 1005.0 |
| 20260905103429 | 64 | 269 | 5.0 | 9.0 | 0.00 | 0.00 | 0.00 | 63 | 1005.0 |
| 20260905102927 | 64 | 354 | 3.0 | 5.0 | 0.00 | 0.00 | 0.00 | 64 | 1004.9 |
| 20260905102426 | 64 | 268 | 4.0 | 7.0 | 0.00 | 0.00 | 0.00 | 63 | 1004.9 |
| 20260905101926 | 65 | 245 | 4.0 | 9.0 | 0.00 | 0.00 | 0.00 | 60 | 1004.8 |
| 20260905101424 | 65 | 175 | 5.0 | 7.0 | 0.00 | 0.00 | 0.00 | 61 | 1004.7 |
| 20260905100924 | 65 | 270 | 5.0 | 8.0 | 0.00 | 0.00 | 0.00 | 60 | 1004.7 |
| 20260905100423 | 65 | 250 | 4.0 | 10.0 | 0.00 | 0.00 | 0.00 | 60 | 1004.7 |
| 20260905095922 | 65 | 230 | 5.0 | 9.0 | 0.00 | 0.00 | 0.00 | 59 | 1005.0 |
| 20260905095421 | 66 | 317 | 5.0 | 11.0 | 0.00 | 0.00 | 0.00 | 59 | 1004.9 |
| 20260905094920 | 65 | 270 | 5.0 | 10.0 | 0.00 | 0.00 | 0.00 | 59 | 1004.8 |
| 20260905094419 | 65 | 265 | 6.0 | 10.0 | 0.00 | 0.00 | 0.00 | 59 | 1004.7 |
| 20260905093918 | 66 | 254 | 4.0 | 10.0 | 0.00 | 0.00 | 0.00 | 58 | 1004.7 |
| 20260905093417 | 65 | 253 | 4.0 | 8.0 | 0.00 | 0.00 | 0.00 | 60 | 1004.7 |
| 20260905092916 | 65 | 270 | 5.0 | 10.0 | 0.00 | 0.00 | 0.00 | 60 | 1004.8 |
| 20260905092415 | 65 | 261 | 5.0 | 10.0 | 0.00 | 0.00 | 0.00 | 59 | 1004.8 |
| 20260905091915 | 65 | 205 | 4.0 | 7.0 | 0.00 | 0.00 | 0.00 | 60 | 1004.7 |
| 20260905091413 | 65 | 235 | 5.0 | 10.0 | 0.00 | 0.00 | 0.00 | 60 | 1004.6 |
| 20260905090913 | 65 | 276 | 5.0 | 10.0 | 0.00 | 0.00 | 0.00 | 61 | 1004.8 |
| 20260905090412 | 65 | 222 | 5.0 | 10.0 | 0.00 | 0.00 | 0.00 | 60 | 1004.7 |
| 20260905085911 | 65 | 60 | 4.0 | 9.0 | 0.00 | 0.00 | 0.00 | 61 | 1004.6 |
| 20260905085410 | 64 | 300 | 4.0 | 9.0 | 0.00 | 0.00 | 0.00 | 63 | 1004.5 |
| 20260905084908 | 65 | 269 | 4.0 | 6.0 | 0.00 | 0.00 | 0.00 | 62 | 1004.5 |
| 20260905084407 | 65 | 266 | 4.0 | 6.0 | 0.00 | 0.00 | 0.00 | 64 | 1004.5 |
| 20260905083906 | 64 | 250 | 4.0 | 10.0 | 0.00 | 0.00 | 0.00 | 64 | 1004.4 |
| 20260905083405 | 64 | 246 | 4.0 | 9.0 | 0.00 | 0.00 | 0.00 | 63 | 1004.4 |
| 20260905082904 | 64 | 222 | 4.0 | 10.0 | 0.00 | 0.00 | 0.00 | 65 | 1004.3 |
| 20260905082404 | 64 | 270 | 4.0 | 10.0 | 0.00 | 0.00 | 0.00 | 66 | 1004.3 |
| 20260905081902 | 63 | 298 | 4.0 | 10.0 | 0.00 | 0.00 | 0.00 | 66 | 1004.4 |
| 20260905081401 | 63 | 245 | 4.0 | 6.0 | 0.00 | 0.00 | 0.00 | 66 | 1004.2 |
| 20260905080859 | 63 | 247 | 5.0 | 9.0 | 0.00 | 0.00 | 0.00 | 66 | 1004.1 |
| 20260905080358 | 62 | 246 | 6.0 | 10.0 | 0.00 | 0.00 | 0.00 | 68 | 1004.0 |
| 20260905075857 | 63 | 264 | 4.0 | 6.0 | 0.00 | 0.00 | 0.00 | 68 | 1004.0 |
| 20260905075356 | 63 | 275 | 5.0 | 10.0 | 0.00 | 0.00 | 0.00 | 68 | 1004.0 |
| 20260905074855 | 64 | 6 | 4.0 | 6.0 | 0.00 | 0.00 | 0.00 | 67 | 1004.0 |
| 20260905074354 | 63 | 254 | 4.0 | 7.0 | 0.00 | 0.00 | 0.00 | 67 | 1003.8 |
| 20260905073853 | 63 | 234 | 4.0 | 6.0 | 0.00 | 0.00 | 0.00 | 68 | 1003.7 |
| 20260905073353 | 62 | 236 | 4.0 | 6.0 | 0.00 | 0.00 | 0.00 | 70 | 1003.7 |
| 20260905072851 | 62 | 256 | 4.0 | 7.0 | 0.00 | 0.00 | 0.00 | 70 | 1003.7 |
| 20260905072350 | 62 | 254 | 4.0 | 9.0 | 0.00 | 0.00 | 0.00 | 71 | 1003.8 |
| 20260905071849 | 62 | 253 | 5.0 | 11.0 | 0.00 | 0.00 | 0.00 | 72 | 1003.8 |
| 20260905071347 | 62 | 250 | 4.0 | 7.0 | 0.00 | 0.00 | 0.00 | 73 | 1003.7 |
| 20260905070847 | 61 | 240 | 4.0 | 7.0 | 0.00 | 0.00 | 0.00 | 74 | 1003.5 |
| 20260905070346 | 61 | 269 | 4.0 | 9.0 | 0.00 | 0.00 | 0.00 | 76 | 1003.4 |
| 20260905065845 | 60 | 256 | 3.0 | 6.0 | 0.00 | 0.00 | 0.00 | 77 | 1003.4 |
| 20260905065343 | 60 | 246 | 3.0 | 7.0 | 0.00 | 0.00 | 0.00 | 78 | 1003.5 |
| 20260905064842 | 60 | 257 | 3.0 | 5.0 | 0.00 | 0.00 | 0.00 | 81 | 1003.5 |
| 20260905064341 | 60 | 240 | 4.0 | 6.0 | 0.00 | 0.00 | 0.00 | 81 | 1003.4 |
| 20260905063840 | 60 | 252 | 3.0 | 6.0 | 0.00 | 0.00 | 0.00 | 81 | 1003.4 |
| 20260905063339 | 60 | 272 | 3.0 | 5.0 | 0.00 | 0.00 | 0.00 | 80 | 1003.3 |
| 20260905062838 | 60 | 269 | 2.0 | 4.0 | 0.00 | 0.00 | 0.00 | 79 | 1003.2 |
| 20260905062337 | 59 | 249 | 2.0 | 4.0 | 0.00 | 0.00 | 0.00 | 78 | 1003.2 |
| 20260905061836 | 60 | 267 | 3.0 | 4.0 | 0.00 | 0.00 | 0.00 | 77 | 1003.2 |
| 20260905061335 | 60 | 36 | 4.0 | 7.0 | 0.00 | 0.00 | 0.00 | 75 | 1003.1 |
| 20260905060835 | 60 | 297 | 4.0 | 8.0 | 0.00 | 0.00 | 0.00 | 76 | 1003.1 |
| 20260905060333 | 60 | 264 | 4.0 | 7.0 | 0.00 | 0.00 | 0.00 | 77 | 1003.0 |
| 20260905055831 | 60 | 263 | 5.0 | 10.0 | 0.00 | 0.00 | 0.00 | 76 | 1003.1 |
| 20260905055331 | 60 | 262 | 4.0 | 10.0 | 0.00 | 0.00 | 0.00 | 78 | 1003.0 |
| 20260905054830 | 60 | 271 | 4.0 | 7.0 | 0.00 | 0.00 | 0.00 | 79 | 1002.9 |
| 20260905054329 | 60 | 307 | 3.0 | 6.0 | 0.00 | 0.00 | 0.00 | 79 | 1002.8 |
| 20260905053828 | 60 | 255 | 3.0 | 5.0 | 0.00 | 0.00 | 0.00 | 80 | 1002.7 |
| 20260905053327 | 60 | 258 | 4.0 | 9.0 | 0.00 | 0.00 | 0.00 | 80 | 1002.8 |
| 20260905052826 | 60 | 258 | 3.0 | 4.0 | 0.00 | 0.00 | 0.00 | 80 | 1002.7 |
| 20260905052325 | 60 | 240 | 3.0 | 6.0 | 0.00 | 0.00 | 0.00 | 80 | 1002.6 |
| 20260905051824 | 60 | 205 | 3.0 | 5.0 | 0.00 | 0.00 | 0.00 | 80 | 1002.6 |
| 20260905051323 | 59 | 246 | 3.0 | 6.0 | 0.00 | 0.00 | 0.00 | 81 | 1002.5 |
| 20260905050822 | 60 | 54 | 3.0 | 5.0 | 0.00 | 0.00 | 0.00 | 81 | 1002.5 |
| 20260905050321 | 59 | 256 | 4.0 | 6.0 | 0.00 | 0.00 | 0.00 | 81 | 1002.4 |
| 20260905045820 | 59 | 256 | 3.0 | 5.0 | 0.00 | 0.00 | 0.00 | 81 | 1002.5 |
| 20260905045319 | 60 | 228 | 3.0 | 6.0 | 0.00 | 0.00 | 0.00 | 81 | 1002.4 |
| 20260905044819 | 60 | 246 | 4.0 | 7.0 | 0.00 | 0.00 | 0.00 | 81 | 1002.3 |
| 20260905044317 | 60 | 264 | 3.0 | 5.0 | 0.00 | 0.00 | 0.00 | 81 | 1002.3 |
| 20260905043816 | 59 | 172 | 3.0 | 6.0 | 0.00 | 0.00 | 0.00 | 81 | 1002.2 |
| 20260905043315 | 59 | 263 | 2.0 | 4.0 | 0.00 | 0.00 | 0.00 | 81 | 1002.1 |
| 20260905042814 | 59 | 262 | 3.0 | 6.0 | 0.00 | 0.00 | 0.00 | 82 | 1002.0 |
| 20260905042313 | 59 | 264 | 4.0 | 7.0 | 0.00 | 0.00 | 0.00 | 82 | 1002.0 |
| 20260905041812 | 59 | 258 | 3.0 | 6.0 | 0.00 | 0.00 | 0.00 | 82 | 1001.9 |
| 20260905041311 | 59 | 252 | 3.0 | 5.0 | 0.00 | 0.00 | 0.00 | 82 | 1002.0 |
| 20260905040810 | 59 | 302 | 3.0 | 5.0 | 0.00 | 0.00 | 0.00 | 82 | 1001.8 |
| 20260905040309 | 59 | 252 | 3.0 | 6.0 | 0.00 | 0.00 | 0.00 | 82 | 1001.7 |
| 20260905035808 | 59 | 258 | 2.0 | 4.0 | 0.00 | 0.00 | 0.00 | 82 | 1001.7 |
| 20260905035307 | 59 | 94 | 3.0 | 5.0 | 0.00 | 0.00 | 0.00 | 82 | 1001.6 |
| 20260905034807 | 59 | 246 | 3.0 | 6.0 | 0.00 | 0.00 | 0.00 | 82 | 1001.6 |
| 20260905034305 | 60 | 246 | 3.0 | 6.0 | 0.00 | 0.00 | 0.00 | 82 | 1001.5 |
| 20260905033804 | 60 | 262 | 4.0 | 7.0 | 0.00 | 0.00 | 0.00 | 82 | 1001.4 |
| 20260905033302 | 60 | 291 | 4.0 | 6.0 | 0.00 | 0.00 | 0.00 | 82 | 1001.4 |
| 20260905032802 | 60 | 264 | 3.0 | 6.0 | 0.00 | 0.00 | 0.00 | 82 | 1001.3 |
| 20260905032301 | 60 | 288 | 3.0 | 7.0 | 0.00 | 0.00 | 0.00 | 82 | 1001.3 |
| 20260905031800 | 60 | 258 | 4.0 | 7.0 | 0.00 | 0.00 | 0.00 | 82 | 1001.2 |
| 20260905031258 | 60 | 233 | 4.0 | 6.0 | 0.00 | 0.00 | 0.00 | 81 | 1001.2 |
| 20260905030757 | 60 | 258 | 3.0 | 6.0 | 0.00 | 0.00 | 0.00 | 81 | 1001.1 |
| 20260905030257 | 60 | 252 | 3.0 | 6.0 | 0.00 | 0.00 | 0.00 | 81 | 1001.1 |
| 20260905025756 | 60 | 263 | 4.0 | 6.0 | 0.00 | 0.00 | 0.00 | 82 | 1001.0 |
| 20260905025254 | 60 | 250 | 3.0 | 5.0 | 0.00 | 0.00 | 0.00 | 82 | 1000.8 |
| 20260905024754 | 60 | 261 | 3.0 | 6.0 | 0.00 | 0.00 | 0.00 | 82 | 1000.8 |
| 20260905024253 | 60 | 228 | 3.0 | 5.0 | 0.00 | 0.00 | 0.00 | 82 | 1000.7 |
| 20260905023752 | 60 | 324 | 3.0 | 6.0 | 0.00 | 0.00 | 0.00 | 81 | 1000.7 |
| 20260905023251 | 61 | 252 | 2.0 | 5.0 | 0.00 | 0.00 | 0.00 | 81 | 1000.7 |
| 20260905022750 | 61 | 257 | 3.0 | 7.0 | 0.00 | 0.00 | 0.00 | 80 | 1000.7 |
| 20260905022249 | 61 | 258 | 3.0 | 5.0 | 0.00 | 0.00 | 0.00 | 79 | 1000.8 |
| 20260905021747 | 61 | 250 | 3.0 | 6.0 | 0.00 | 0.00 | 0.00 | 78 | 1000.7 |
| 20260905021247 | 61 | 252 | 3.0 | 5.0 | 0.00 | 0.00 | 0.00 | 77 | 1000.7 |
| 20260905020746 | 61 | 240 | 3.0 | 6.0 | 0.00 | 0.00 | 0.00 | 76 | 1000.6 |
| 20260905020245 | 61 | 252 | 3.0 | 6.0 | 0.00 | 0.00 | 0.00 | 76 | 1000.6 |
| 20260905015743 | 61 | 246 | 4.0 | 6.0 | 0.00 | 0.00 | 0.00 | 76 | 1000.6 |
| 20260905015242 | 61 | 261 | 3.0 | 9.0 | 0.00 | 0.00 | 0.00 | 77 | 1000.5 |
| 20260905014742 | 61 | 249 | 3.0 | 6.0 | 0.00 | 0.00 | 0.00 | 78 | 1000.4 |
| 20260905014240 | 61 | 244 | 3.0 | 6.0 | 0.00 | 0.00 | 0.00 | 79 | 1000.4 |
| 20260905013739 | 61 | 258 | 3.0 | 6.0 | 0.00 | 0.00 | 0.00 | 80 | 1000.3 |
| 20260905013238 | 62 | 354 | 3.0 | 6.0 | 0.00 | 0.00 | 0.00 | 80 | 1000.3 |
| 20260905012737 | 62 | 264 | 3.0 | 5.0 | 0.00 | 0.00 | 0.00 | 80 | 1000.3 |
| 20260905012236 | 62 | 300 | 3.0 | 6.0 | 0.00 | 0.00 | 0.00 | 80 | 1000.4 |
| 20260905011735 | 62 | 252 | 3.0 | 5.0 | 0.00 | 0.00 | 0.00 | 80 | 1000.0 |
| 20260905011233 | 62 | 243 | 3.0 | 5.0 | 0.00 | 0.00 | 0.00 | 80 | 1000.1 |
| 20260905010732 | 62 | 261 | 2.0 | 5.0 | 0.00 | 0.00 | 0.00 | 80 | 1000.2 |
| 20260905010231 | 62 | 234 | 4.0 | 7.0 | 0.00 | 0.00 | 0.00 | 80 | 1000.3 |
| 20260905005730 | 62 | 321 | 3.0 | 6.0 | 0.00 | 0.00 | 0.00 | 81 | 1000.1 |
| 20260905005230 | 62 | 286 | 4.0 | 8.0 | 0.00 | 0.00 | 0.00 | 80 | 1000.0 |
| 20260905004728 | 62 | 276 | 3.0 | 5.0 | 0.00 | 0.00 | 0.00 | 80 | 1000.0 |
| 20260905004227 | 62 | 255 | 4.0 | 10.0 | 0.00 | 0.00 | 0.00 | 80 | 999.8 |
| 20260905003726 | 62 | 245 | 3.0 | 7.0 | 0.00 | 0.00 | 0.00 | 81 | 999.9 |
| 20260905003224 | 62 | 258 | 4.0 | 9.0 | 0.00 | 0.00 | 0.00 | 80 | 999.7 |
| 20260905002724 | 62 | 228 | 4.0 | 8.0 | 0.00 | 0.00 | 0.00 | 80 | 999.7 |
| 20260905002223 | 62 | 296 | 4.0 | 7.0 | 0.00 | 0.00 | 0.00 | 81 | 999.4 |
| 20260905001721 | 62 | 250 | 4.0 | 9.0 | 0.00 | 0.00 | 0.00 | 81 | 999.2 |
| 20260905001221 | 62 | 300 | 4.0 | 8.0 | 0.00 | 0.00 | 0.00 | 82 | 999.3 |
| 20260905000719 | 62 | 240 | 4.0 | 7.0 | 0.00 | 0.00 | 0.00 | 82 | 999.2 |
| 20260905000219 | 62 | 268 | 4.0 | 8.0 | 0.00 | 0.00 | 0.00 | 83 | 999.3 |
| 20260904235717 | 62 | 244 | 4.0 | 7.0 | 0.00 | 0.00 | 0.00 | 83 | 999.4 |
| 20260904235216 | 62 | 272 | 3.0 | 6.0 | 0.00 | 0.00 | 0.00 | 84 | 999.2 |
| 20260904234716 | 62 | 245 | 4.0 | 7.0 | 0.00 | 0.00 | 0.00 | 84 | 999.3 |
| 20260904234214 | 62 | 246 | 4.0 | 9.0 | 0.00 | 0.00 | 0.00 | 84 | 999.3 |
| 20260904233713 | 62 | 255 | 4.0 | 7.0 | 0.00 | 0.00 | 0.00 | 84 | 999.2 |
| 20260904233212 | 62 | 148 | 3.0 | 6.0 | 0.00 | 0.00 | 0.00 | 85 | 999.2 |
| 20260904232711 | 62 | 282 | 3.0 | 6.0 | 0.00 | 0.00 | 0.00 | 85 | 999.0 |
| 20260904232210 | 62 | 252 | 5.0 | 10.0 | 0.00 | 0.00 | 0.00 | 84 | 999.1 |
| 20260904231709 | 62 | 210 | 3.0 | 7.0 | 0.00 | 0.00 | 0.00 | 85 | 998.9 |
| 20260904231208 | 62 | 270 | 4.0 | 6.0 | 0.00 | 0.00 | 0.00 | 85 | 998.9 |
| 20260904230706 | 62 | 270 | 4.0 | 7.0 | 0.00 | 0.00 | 0.00 | 85 | 998.6 |
| 20260904230205 | 62 | 255 | 4.0 | 6.0 | 0.00 | 0.00 | 0.00 | 85 | 998.6 |
| 20260904225705 | 62 | 303 | 4.0 | 6.0 | 0.00 | 0.00 | 0.00 | 85 | 998.4 |
| 20260904225203 | 62 | 282 | 4.0 | 7.0 | 0.00 | 0.00 | 0.00 | 84 | 998.5 |
| 20260904224703 | 62 | 264 | 4.0 | 6.0 | 0.00 | 0.00 | 0.00 | 85 | 998.5 |
| 20260904224201 | 62 | 258 | 3.0 | 5.0 | 0.00 | 0.00 | 0.00 | 85 | 998.4 |
| 20260904223700 | 62 | 243 | 3.0 | 6.0 | 0.00 | 0.00 | 0.00 | 84 | 998.5 |
| 20260904223159 | 62 | 273 | 3.0 | 6.0 | 0.00 | 0.00 | 0.00 | 85 | 998.3 |
| 20260904222658 | 62 | 270 | 4.0 | 7.0 | 0.00 | 0.00 | 0.00 | 84 | 998.4 |
| 20260904222157 | 62 | 272 | 4.0 | 7.0 | 0.00 | 0.00 | 0.00 | 84 | 998.3 |
| 20260904221656 | 62 | 264 | 4.0 | 10.0 | 0.00 | 0.00 | 0.00 | 84 | 998.3 |
| 20260904221155 | 62 | 246 | 4.0 | 10.0 | 0.00 | 0.00 | 0.00 | 84 | 998.2 |
| 20260904220654 | 62 | 302 | 4.0 | 7.0 | 0.00 | 0.00 | 0.00 | 84 | 998.1 |
| 20260904220153 | 62 | 60 | 4.0 | 7.0 | 0.00 | 0.00 | 0.00 | 84 | 998.1 |
| 20260904215652 | 62 | 228 | 4.0 | 6.0 | 0.00 | 0.00 | 0.00 | 83 | 998.0 |